Temperature
14 14 14 14 13 13 13 13 13 13 13 13 13 13 13 13 13 13 13 13 13 13 13 13 12 12 12 12 12 12 12 12 12 12 12 12 12 11 11 11 11 11 11
14 13 13 13 13 13 13 13 13 13 13 13 12 12 12 12 12 12 12 12 12 12 12 12 12 12 12 12 12 12 12 12 11 11 11 11 11 11 11 11 11 11 10
13 13 13 13 13 12 12 12 12 12 12 12 12 12 12 12 12 12 12 12 12 12 12 11 12 12 12 12 11 11 11 11 11 11 11 11 11 11 11 10 10 10 10
13 13 13 12 12 12 12 12 12 11 11 11 11 11 11 11 11 11 11 11 11 11 11 11 11 11 11 11 11 11 11 11 11 10 10 10 10 10 10 10 10 10 10
12 12 12 12 12 11 11 11 11 11 11 11 11 11 11 11 11 11 11 11 11 11 11 11 11 11 11 11 10 10 10 10 10 10 10 10 10 10 10 9 9 9 9
11 11 11 11 11 11 11 10 10 10 10 10 10 10 10 10 10 10 10 11 10 11 10 10 10 10 10 10 10 10 10 10 10 10 10 10 10 10 9 9 9 9 9
11 11 11 11 10 10 10 10 10 10 10 10 10 9 10 10 10 10 10 10 10 10 10 10 10 10 10 10 10 10 9 9 9 9 9 9 9 9 9 9 9 9 9
10 10 10 10 10 10 10 10 9 9 9 9 9 9 9 9 9 9 9 10 10 9 9 9 9 9 9 9 9 9 9 9 9 9 9 9 9 9 9 9 9 8 8
10 10 9 9 9 9 9 9 9 9 9 9 8 8 9 9 9 9 9 9 9 9 9 9 9 9 9 9 9 9 9 9 9 8 9 9 9 9 9 8 8 8 8
9 9 9 9 9 9 8 8 8 8 8 8 8 8 8 8 8 8 8 8 8 8 8 8 8 8 8 8 8 8 8 8 8 8 8 8 8 8 8 8 8 8 8
8 8 8 8 8 8 8 8 8 8 8 8 8 7 7 7 7 7 7 7 7 7 8 8 8 8 8 8 8 8 8 8 8 8 8 8 8 8 8 8 8 8 7
8 8 8 8 8 7 7 7 7 7 7 7 7 7 7 7 7 7 6 7 7 7 7 7 7 7 7 7 7 7 7 7 7 7 7 7 7 7 8 8 7 7 7
7 7 7 7 7 7 7 7 7 6 6 6 6 6 6 6 6 6 6 6 6 6 6 6 6 7 7 7 7 7 7 7 7 7 7 7 7 7 7 7 7 7 7
7 7 6 6 6 6 6 6 6 6 6 6 5 5 5 5 5 5 6 6 6 6 6 6 6 6 6 6 6 6 6 6 6 6 6 6 6 6 6 6 6 6 7
6 6 5 5 5 5 5 5 5 5 5 5 5 5 5 5 5 5 5 5 5 5 5 5 5 5 6 6 6 6 6 6 6 6 6 6 6 6 6 6 6 6 6
5 5 5 5 5 5 4 4 4 4 4 4 4 4 4 4 4 4 4 4 4 4 4 5 5 5 5 5 5 5 5 5 5 5 5 5 5 6 6 5 5 5 5
5 4 4 4 4 4 4 4 4 4 4 3 3 3 3 4 4 4 4 4 4 4 4 4 4 4 4 4 4 4 5 5 5 5 5 5 5 5 5 5 5 5 5
4 4 4 4 4 3 3 3 3 3 3 3 3 3 3 3 3 3 3 3 3 3 3 3 3 3 3 4 4 4 4 4 4 4 4 4 4 4 4 4 4 4 4
4 4 3 3 3 3 3 2 2 2 2 2 2 2 2 2 2 3 3 3 2 2 2 2 2 2 3 3 3 3 3 3 3 3 3 3 4 4 4 4 4 4 4
3 3 3 3 2 2 2 2 2 2 2 2 2 2 2 2 2 2 2 2 2 2 2 2 2 2 2 2 2 2 2 2 3 3 3 3 3 3 3 3 3 3 3
3 2 2 2 2 2 2 1 1 1 1 1 1 1 1 1 1 2 2 1 1 1 1 1 1 1 1 2 2 2 2 2 2 2 2 2 3 3 3 3 3 3 3
2 2 2 2 1 1 1 1 1 1 1 1 1 1 1 1 1 1 1 1 1 1 1 1 1 1 1 1 1 1 1 1 1 2 2 2 2 2 2 2 2 2 2
2 1 1 1 1 1 1 1 0 0 0 0 0 0 0 1 0 0 0 0 0 0 1 1 1 1 1 1 1 1 1 1 1 1 1 1 1 2 2 2 2 2 2
1 1 1 0 0 0 0 0 0 0 0 -0 -0 -0 -0 -0 -0 -0 -0 -0 -0 -0 0 0 0 0 0 0 0 0 0 0 0 1 1 1 1 1 1 1 1 1 1
1 0 0 0 0 -0 -0 -0 -0 -0 -0 -1 -1 -1 -1 -1 -1 -1 -1 -1 -1 -1 -0 -0 -0 -0 -0 -0 0 0 0 0 0 0 0 0 0 1 1 1 1 1 1
0 0 -0 -0 -0 -0 -1 -1 -1 -1 -1 -1 -1 -1 -1 -1 -1 -1 -1 -1 -1 -1 -1 -1 -1 -1 -1 -0 -0 -0 -0 0 0 0 0 0 0 0 0 0 0 0 0
Wind_Speed
1 1 1 1 1 1 1 1 1 1 1 2 2 2 2 1 1 2 1 1 1 0 1 1 1 1 1 1 1 1 1 2 2 2 1 1 1 1 1 1 1 2 2
2 2 2 1 1 1 1 1 1 1 1 1 1 1 1 1 1 2 1 1 1 0 0 1 0 1 1 0 1 1 0 1 2 1 1 1 1 1 1 1 1 1 2
2 2 2 2 1 1 1 1 1 1 1 2 2 2 1 0 1 1 1 1 2 1 1 1 1 1 0 0 0 0 0 0 1 1 1 1 1 1 1 1 1 1 0
2 2 2 1 1 1 1 1 1 2 2 2 2 2 1 0 0 0 1 1 1 1 1 2 2 2 2 2 1 1 1 0 0 1 1 1 1 1 0 0 1 1 1
2 2 1 1 1 2 2 2 2 2 2 2 2 2 1 1 1 1 0 1 1 1 1 2 2 2 2 2 2 2 2 1 1 1 1 1 1 1 1 1 1 1 2
2 1 1 2 2 2 2 2 2 2 2 2 2 1 1 1 3 3 1 0 0 1 2 2 2 2 1 2 2 2 3 3 3 2 2 2 3 2 2 2 1 0 2
1 1 1 2 2 1 1 2 2 1 2 2 1 1 1 2 3 4 3 1 1 1 2 2 2 2 1 1 1 1 1 1 3 4 3 4 4 4 3 2 3 3 3
2 2 1 2 2 1 2 1 1 1 1 1 1 0 1 2 4 4 4 2 1 2 2 2 2 2 1 0 1 0 1 2 2 2 4 5 4 4 5 4 3 1 1
1 1 1 1 1 1 1 0 0 0 0 1 1 0 1 2 3 4 3 2 2 2 2 1 1 2 2 0 1 1 1 3 3 3 3 3 4 4 3 3 2 2 1
1 1 1 1 2 1 0 0 0 0 0 0 0 0 1 1 3 4 4 1 2 2 3 2 2 2 2 0 2 2 2 3 2 2 3 2 1 2 4 4 4 3 2
1 2 2 2 1 1 1 1 1 1 1 1 1 1 2 2 2 3 4 2 1 2 2 2 3 4 2 1 1 2 3 2 1 1 1 1 1 1 2 2 3 4 3
2 2 2 2 1 2 2 2 2 2 2 1 1 2 2 3 3 3 4 3 3 1 2 2 3 4 3 2 1 2 2 1 0 0 0 1 2 2 2 2 3 3 3
3 2 2 2 2 2 2 2 2 2 1 1 1 1 2 2 3 4 4 5 4 2 2 3 4 5 4 2 2 2 1 1 1 1 2 3 3 2 1 1 1 1 2
2 2 2 2 2 3 2 1 1 1 1 1 0 1 1 2 2 2 2 3 3 3 2 3 5 5 2 2 3 2 1 1 1 2 2 2 1 1 1 1 0 0 1
2 2 2 2 2 2 2 2 1 1 0 0 1 1 1 1 3 4 3 2 2 2 2 2 2 2 2 2 2 2 1 1 2 2 1 1 1 1 1 1 1 0 1
2 2 1 1 1 2 2 3 5 4 4 4 3 2 1 2 4 4 4 4 4 3 2 1 2 2 2 2 2 2 1 2 2 1 1 1 1 2 1 1 0 1 2
2 1 1 1 1 1 1 1 2 4 5 4 4 4 4 4 4 5 4 4 4 4 2 1 2 2 2 2 2 2 2 2 1 1 1 2 2 2 2 2 1 1 2
1 1 1 1 1 1 1 1 1 1 2 3 4 5 5 5 5 5 4 3 3 3 2 2 3 3 2 2 2 2 2 2 1 1 2 2 2 2 2 2 2 2 2
1 1 1 1 1 1 0 0 1 1 1 2 3 4 5 5 5 5 4 2 1 2 2 3 3 3 3 3 2 2 2 2 2 2 2 2 2 2 2 2 2 3 3
1 2 3 2 1 1 1 1 1 1 1 1 2 3 3 3 2 3 2 2 1 2 2 3 3 3 3 3 2 2 2 2 2 2 2 2 2 2 2 3 3 3 3
1 1 3 2 1 1 1 0 0 0 1 1 2 3 3 2 1 2 2 2 2 2 2 2 3 3 3 2 2 3 3 3 3 3 3 2 2 2 2 3 3 3 3
1 1 1 1 1 1 1 1 1 1 1 2 2 3 4 2 2 2 2 2 2 2 2 2 2 2 2 2 2 3 3 3 3 3 3 3 3 3 2 2 3 3 3
1 1 1 1 0 1 2 1 1 1 1 2 2 2 2 2 2 2 3 3 3 3 3 3 3 3 3 4 4 3 3 3 4 4 4 3 3 3 3 3 3 3 3
1 1 1 1 1 1 1 1 2 2 2 2 2 2 2 2 3 3 3 3 3 3 4 3 3 4 5 5 5 4 5 5 5 4 4 4 3 3 3 3 4 4 4
1 0 0 0 0 1 1 1 1 2 2 2 2 3 3 3 3 3 3 3 3 4 4 5 4 5 5 6 6 6 6 7 7 5 4 3 4 4 4 4 4 4 4
0 0 0 0 1 1 1 1 2 2 2 3 3 3 3 3 4 4 3 3 4 4 5 5 6 6 7 7 7 7 8 8 8 7 5 3 4 4 4 4 5 4 4
Wind_Direction
148 145 132 142 139 139 151 175 172 156 150 152 168 150 156 153 136 125 137 122 120 25 25 86 58 67 58 37 74 87 105 148 195 277 294 323 2 311 321 269 210 206 215
153 130 150 138 113 106 107 122 119 122 139 141 133 134 157 181 162 144 162 160 162 179 293 80 27 68 67 70 104 122 171 173 173 234 296 328 313 254 239 248 224 202 199
133 116 101 102 106 116 112 113 110 109 82 79 101 113 117 149 155 158 164 175 190 196 189 178 215 137 137 69 123 181 232 39 141 184 253 275 321 326 12 342 27 11 168
123 117 116 128 125 112 111 98 97 95 86 70 75 87 73 32 94 161 163 193 198 202 205 202 208 201 205 199 200 205 190 146 129 164 245 279 300 295 139 78 2 341 308
113 122 150 146 101 93 97 97 103 111 103 100 81 61 42 39 46 47 192 201 241 266 266 238 226 222 217 200 201 199 183 194 188 194 239 273 266 215 212 207 209 323 317
101 128 120 107 95 80 80 90 91 98 96 96 90 80 41 9 16 20 33 341 293 277 282 284 282 260 251 238 235 208 188 186 198 206 227 227 236 222 205 190 169 163 280
67 59 90 115 107 101 95 85 94 111 99 99 91 77 46 336 356 7 13 22 341 298 290 295 309 320 314 246 261 251 241 215 194 193 212 229 218 208 190 199 207 207 225
59 63 65 89 103 95 84 92 104 145 123 113 94 358 13 351 2 2 8 20 346 303 278 263 268 292 291 202 177 225 289 280 245 210 214 228 220 199 195 199 204 209 270
96 96 96 112 114 96 83 59 11 79 88 141 113 55 29 345 3 4 22 21 13 344 331 335 295 277 295 284 160 193 289 299 307 293 278 252 234 202 169 134 137 153 249
120 119 91 94 101 98 121 345 10 82 266 176 79 52 40 347 8 19 29 36 9 343 335 331 325 310 307 164 186 192 235 274 299 317 322 300 270 219 187 174 181 186 206
76 77 64 67 87 94 73 52 49 83 82 63 43 24 21 14 15 18 21 28 341 317 316 320 320 335 334 320 214 210 241 261 270 283 300 305 300 255 231 216 201 194 203
72 81 71 59 58 53 60 44 42 70 77 62 49 24 9 3 21 16 6 1 359 303 293 297 307 328 330 318 289 291 295 299 223 259 230 262 262 253 255 245 233 234 233
70 71 62 50 40 41 57 61 62 69 82 70 48 18 354 353 350 359 0 357 352 338 314 332 337 338 334 323 325 322 329 282 228 243 240 246 251 253 261 290 322 334 336
79 60 58 53 40 36 38 61 81 85 76 62 16 328 333 341 333 338 345 348 350 349 338 340 347 353 354 339 347 348 335 274 264 253 261 256 262 245 225 215 219 322 346
79 65 59 55 56 44 36 29 35 20 34 60 247 256 309 322 327 346 356 347 339 323 332 348 1 2 357 346 341 332 328 330 315 303 304 303 292 264 266 238 200 193 255
85 62 67 64 59 60 50 26 23 22 18 26 27 16 346 347 348 353 356 358 351 350 9 354 333 321 308 312 309 310 308 291 286 293 284 268 259 241 249 257 224 212 242
98 78 77 86 80 64 57 51 17 7 14 16 11 0 359 357 358 356 356 359 1 11 22 334 314 305 299 300 300 294 290 291 282 266 274 276 275 261 239 233 227 241 255
78 57 62 90 98 81 53 30 38 29 2 347 351 360 4 4 1 1 3 19 9 12 354 323 314 308 300 293 293 297 300 310 309 287 283 286 270 260 253 246 240 242 251
73 41 71 77 50 44 42 41 40 35 11 343 350 354 359 2 7 7 12 21 347 341 337 323 315 308 302 291 293 298 292 288 286 278 271 266 265 256 260 260 252 259 257
56 50 54 63 48 42 36 46 48 41 13 350 336 331 343 4 11 356 358 348 337 331 334 326 318 319 319 316 312 310 303 296 288 277 271 264 259 255 256 256 251 250 253
65 54 42 43 38 38 37 21 346 10 334 317 315 330 355 356 330 321 326 329 319 315 312 311 311 314 315 319 323 324 318 307 292 282 279 279 273 265 262 258 258 257 259
84 61 47 41 34 27 24 5 336 311 307 311 318 331 346 355 337 329 318 312 304 293 288 290 298 300 300 304 304 306 304 305 303 300 294 289 285 280 273 268 270 268 263
81 63 43 29 48 17 7 337 325 316 309 309 314 327 336 331 322 317 315 317 310 305 310 304 292 295 308 306 304 292 288 290 286 284 284 280 276 273 269 266 265 266 264
75 69 53 27 18 355 319 319 323 321 320 321 323 319 315 312 315 316 318 313 311 312 315 313 304 299 303 311 312 306 299 298 299 292 280 272 271 269 263 265 264 262 261
84 69 46 330 318 317 314 317 318 317 320 322 323 319 314 313 315 317 320 315 313 311 312 312 311 308 304 304 306 306 303 304 303 305 295 274 271 267 264 264 262 261 259
92 11 303 302 303 305 302 304 307 311 313 319 319 316 313 310 309 310 313 314 314 309 309 312 309 307 304 305 305 305 306 306 302 297 297 282 269 267 265 262 261 257 259
Height
1519 1519 1518 1518 1519 1518 1518 1518 1518 1518 1518 1518 1519 1519 1520 1520 1520 1520 1520 1520 1521 1521 1521 1521 1521 1521 1521 1522 1521 1521 1521 1521 1519 1519 1519 1518 1518 1518 1518 1517 1517 1516 1516
1516 1517 1517 1517 1517 1517 1516 1516 1516 1516 1517 1517 1517 1517 1518 1518 1518 1518 1518 1518 1518 1518 1518 1518 1518 1519 1519 1519 1519 1519 1518 1518 1518 1516 1516 1516 1516 1516 1515 1515 1515 1514 1514
1515 1515 1515 1515 1515 1515 1514 1514 1514 1514 1514 1515 1515 1515 1516 1516 1516 1516 1516 1516 1516 1516 1516 1516 1515 1516 1516 1516 1516 1516 1516 1515 1515 1514 1513 1514 1513 1513 1513 1513 1512 1512 1512
1513 1513 1513 1513 1513 1513 1513 1512 1512 1512 1512 1512 1513 1513 1514 1514 1514 1513 1513 1514 1514 1514 1514 1513 1513 1513 1513 1513 1513 1513 1513 1513 1512 1512 1511 1511 1511 1511 1510 1510 1510 1510 1510
1512 1512 1511 1511 1511 1511 1511 1510 1510 1510 1510 1510 1511 1511 1511 1512 1512 1511 1511 1511 1511 1511 1511 1511 1510 1510 1510 1510 1510 1510 1510 1510 1509 1509 1508 1508 1508 1508 1508 1508 1507 1507 1508
1510 1510 1510 1509 1509 1509 1509 1509 1509 1508 1508 1508 1508 1509 1509 1509 1509 1509 1508 1508 1508 1508 1507 1507 1507 1507 1507 1507 1507 1507 1507 1507 1506 1506 1505 1505 1505 1505 1505 1505 1505 1505 1504
1508 1508 1508 1507 1507 1507 1507 1507 1507 1507 1507 1506 1506 1506 1506 1506 1506 1506 1505 1505 1505 1505 1505 1504 1504 1504 1503 1503 1503 1503 1503 1503 1504 1503 1502 1502 1503 1502 1503 1503 1503 1503 1503
1506 1505 1506 1505 1505 1505 1504 1504 1504 1505 1504 1504 1504 1504 1503 1503 1503 1503 1503 1502 1502 1502 1502 1502 1501 1501 1500 1500 1500 1500 1499 1500 1500 1500 1500 1500 1500 1500 1500 1501 1500 1500 1500
1504 1503 1504 1504 1503 1503 1502 1502 1502 1502 1502 1502 1502 1501 1501 1501 1500 1500 1500 1499 1499 1499 1499 1499 1498 1498 1498 1497 1497 1496 1496 1496 1496 1496 1496 1496 1497 1497 1497 1497 1497 1497 1496
1502 1502 1502 1502 1501 1501 1500 1500 1500 1500 1500 1499 1499 1499 1499 1498 1498 1497 1497 1496 1496 1496 1496 1495 1495 1495 1495 1494 1494 1493 1492 1492 1492 1492 1492 1492 1493 1493 1493 1493 1493 1493 1493
1500 1500 1500 1500 1499 1499 1498 1498 1498 1497 1497 1497 1497 1497 1496 1496 1495 1495 1494 1494 1493 1493 1492 1492 1492 1492 1491 1491 1491 1490 1490 1490 1489 1489 1488 1488 1489 1489 1489 1490 1490 1490 1490
1499 1498 1498 1498 1497 1497 1496 1495 1495 1495 1494 1494 1494 1494 1493 1493 1493 1492 1492 1491 1491 1490 1489 1489 1489 1488 1488 1487 1487 1487 1487 1486 1486 1486 1485 1485 1485 1485 1486 1486 1486 1487 1487
1497 1496 1496 1495 1495 1494 1493 1493 1492 1492 1492 1491 1491 1491 1490 1490 1490 1490 1489 1488 1488 1487 1486 1486 1486 1485 1485 1484 1484 1483 1483 1483 1482 1482 1481 1481 1482 1482 1482 1482 1482 1483 1483
1495 1494 1494 1493 1493 1492 1491 1491 1491 1490 1489 1489 1489 1488 1488 1487 1487 1487 1486 1485 1484 1483 1483 1483 1482 1482 1482 1481 1481 1480 1480 1479 1479 1478 1478 1478 1478 1478 1478 1478 1478 1478 1478
1492 1492 1492 1492 1491 1490 1490 1490 1489 1489 1489 1488 1487 1486 1486 1485 1485 1485 1484 1482 1481 1481 1480 1480 1479 1479 1478 1477 1477 1477 1476 1476 1476 1475 1475 1475 1475 1475 1475 1475 1475 1474 1474
1491 1491 1490 1490 1490 1489 1488 1488 1487 1487 1487 1486 1486 1485 1484 1484 1483 1482 1481 1480 1479 1479 1478 1477 1476 1475 1475 1474 1474 1473 1473 1473 1472 1472 1472 1472 1471 1471 1471 1471 1471 1471 1471
1490 1489 1489 1489 1488 1487 1487 1486 1485 1485 1485 1484 1483 1483 1482 1481 1480 1479 1479 1478 1477 1476 1475 1474 1473 1472 1472 1471 1471 1470 1470 1469 1469 1469 1468 1468 1468 1468 1468 1467 1467 1467 1467
1489 1488 1488 1487 1487 1486 1485 1484 1484 1483 1482 1481 1481 1480 1480 1479 1478 1477 1476 1475 1474 1473 1472 1471 1470 1470 1469 1468 1468 1467 1467 1466 1466 1465 1465 1465 1464 1464 1464 1464 1464 1464 1464
1487 1487 1486 1486 1485 1484 1484 1483 1482 1481 1480 1480 1479 1478 1478 1477 1476 1475 1474 1472 1471 1470 1470 1469 1468 1467 1466 1465 1465 1464 1464 1463 1462 1462 1461 1461 1461 1461 1461 1461 1460 1460 1460
1486 1486 1485 1485 1484 1483 1482 1482 1481 1480 1479 1478 1477 1476 1475 1474 1473 1472 1471 1470 1469 1468 1467 1467 1466 1464 1463 1462 1462 1461 1460 1460 1459 1459 1458 1458 1458 1457 1457 1457 1456 1456 1456
1484 1484 1484 1483 1482 1482 1481 1480 1479 1478 1477 1476 1475 1475 1474 1473 1471 1470 1469 1468 1467 1466 1465 1464 1463 1462 1461 1460 1459 1458 1457 1456 1456 1455 1455 1454 1454 1454 1453 1453 1453 1452 1452
1483 1482 1482 1481 1481 1480 1479 1479 1478 1477 1476 1475 1473 1473 1472 1471 1469 1468 1467 1466 1465 1464 1463 1462 1460 1459 1458 1457 1456 1455 1454 1453 1452 1452 1451 1450 1450 1450 1449 1449 1448 1448 1448
1481 1480 1480 1480 1479 1479 1478 1477 1476 1475 1474 1473 1472 1471 1469 1468 1467 1466 1465 1464 1462 1461 1460 1459 1457 1456 1455 1454 1453 1452 1451 1450 1449 1448 1447 1446 1446 1445 1445 1445 1444 1444 1444
1479 1479 1478 1478 1477 1477 1476 1475 1474 1473 1472 1471 1470 1468 1467 1466 1465 1464 1462 1461 1460 1458 1457 1456 1454 1453 1452 1451 1450 1449 1448 1446 1445 1444 1443 1442 1442 1441 1441 1440 1440 1440 1440
1478 1477 1477 1476 1475 1475 1474 1473 1472 1471 1470 1469 1467 1466 1465 1464 1462 1461 1460 1458 1457 1455 1454 1453 1451 1450 1449 1447 1446 1445 1444 1443 1442 1441 1439 1438 1437 1437 1436 1436 1435 1435 1435
1476 1475 1475 1474 1473 1473 1472 1471 1470 1469 1468 1466 1465 1464 1462 1461 1460 1458 1457 1455 1454 1452 1451 1449 1448 1446 1445 1443 1442 1441 1440 1438 1437 1436 1435 1434 1433 1432 1431 1431 1431 1431 1430